Year,Month,Day,Hour,Minute,Value (Times are PST for temperature in C)
2014,11,28,00,00,11.10
2014,11,28,00,01,11.00
2014,11,28,00,02,10.90
2014,11,28,00,03,10.90
2014,11,28,00,04,10.90
2014,11,28,00,05,10.90
2014,11,28,00,06,10.90
2014,11,28,00,07,10.90
2014,11,28,00,08,10.90
2014,11,28,00,09,10.90
2014,11,28,00,10,10.90
2014,11,28,00,11,10.90
2014,11,28,00,12,10.90
2014,11,28,00,13,10.90
2014,11,28,00,14,10.90
2014,11,28,00,15,10.90
2014,11,28,00,16,10.90
2014,11,28,00,17,10.90
2014,11,28,00,18,10.90
2014,11,28,00,19,10.90
2014,11,28,00,20,10.90
2014,11,28,00,21,10.90
2014,11,28,00,22,10.90
2014,11,28,00,23,10.90
2014,11,28,00,24,10.90
2014,11,28,00,25,10.90
2014,11,28,00,26,10.90
2014,11,28,00,27,10.90
2014,11,28,00,28,10.90
2014,11,28,00,29,10.90
2014,11,28,00,30,10.90
2014,11,28,00,31,10.90
2014,11,28,00,32,10.90
2014,11,28,00,33,10.90
2014,11,28,00,34,10.90
2014,11,28,00,35,10.90
2014,11,28,00,36,10.90
2014,11,28,00,37,10.90
2014,11,28,00,38,10.90
2014,11,28,00,39,10.90
2014,11,28,00,40,10.90
2014,11,28,00,41,10.90
2014,11,28,00,42,10.90
2014,11,28,00,43,10.90
2014,11,28,00,44,10.90
2014,11,28,00,45,10.90
2014,11,28,00,46,10.90
2014,11,28,00,47,10.90
2014,11,28,00,48,10.90
2014,11,28,00,49,10.90
2014,11,28,00,52,10.90
2014,11,28,00,53,10.90
2014,11,28,00,54,10.90
2014,11,28,00,55,10.80
2014,11,28,00,56,10.80
2014,11,28,00,57,10.80
2014,11,28,00,58,10.80
2014,11,28,00,59,10.80
2014,11,28,01,00,10.80
2014,11,28,01,01,10.80
2014,11,28,01,02,10.80
2014,11,28,01,03,10.80
2014,11,28,01,04,10.80
2014,11,28,01,05,10.80
2014,11,28,01,06,10.80
2014,11,28,01,07,10.80
2014,11,28,01,08,10.80
2014,11,28,01,09,10.80
2014,11,28,01,10,10.80
2014,11,28,01,11,10.80
2014,11,28,01,12,10.80
2014,11,28,01,13,10.90
2014,11,28,01,14,10.90
2014,11,28,01,15,10.90
2014,11,28,01,16,10.90
2014,11,28,01,17,10.90
2014,11,28,01,18,10.90
2014,11,28,01,19,10.90
2014,11,28,01,20,10.90
2014,11,28,01,21,10.90
2014,11,28,01,22,10.80
2014,11,28,01,23,10.80
2014,11,28,01,24,10.80
2014,11,28,01,25,10.80
2014,11,28,01,26,10.80
2014,11,28,01,27,10.80
2014,11,28,01,28,10.80
2014,11,28,01,29,10.80
2014,11,28,01,30,10.80
2014,11,28,01,31,10.80
2014,11,28,01,32,10.80
2014,11,28,01,33,10.80
2014,11,28,01,34,10.80
2014,11,28,01,35,10.70
2014,11,28,01,36,10.70
2014,11,28,01,37,10.70
2014,11,28,01,38,10.70
2014,11,28,01,39,10.70
2014,11,28,01,40,10.70
2014,11,28,01,41,10.70
2014,11,28,01,42,10.70
2014,11,28,01,43,10.70
2014,11,28,01,44,10.70
2014,11,28,01,45,10.70
2014,11,28,01,46,10.70
2014,11,28,01,47,10.70
2014,11,28,01,48,10.70
2014,11,28,01,49,10.70
2014,11,28,01,50,10.70
2014,11,28,01,51,10.70
2014,11,28,01,52,10.70
2014,11,28,01,53,10.70
2014,11,28,01,54,10.70
2014,11,28,01,55,10.60
2014,11,28,01,56,10.70
2014,11,28,01,57,10.70
2014,11,28,01,58,10.60
2014,11,28,01,59,10.60
2014,11,28,02,00,10.60
2014,11,28,02,01,10.60
2014,11,28,02,02,10.60
2014,11,28,02,03,10.60
2014,11,28,02,04,10.60
2014,11,28,02,05,10.60
2014,11,28,02,06,10.60
2014,11,28,02,07,10.60
2014,11,28,02,08,10.60
2014,11,28,02,09,10.60
2014,11,28,02,10,10.60
2014,11,28,02,11,10.60
2014,11,28,02,12,10.60
2014,11,28,02,13,10.60
2014,11,28,02,14,10.70
2014,11,28,02,15,10.70
2014,11,28,02,16,10.70
2014,11,28,02,17,10.80
2014,11,28,02,18,10.80
2014,11,28,02,19,10.80
2014,11,28,02,20,10.80
2014,11,28,02,21,10.80
2014,11,28,02,22,10.80
2014,11,28,02,23,10.80
2014,11,28,02,24,10.80
2014,11,28,02,25,10.80
2014,11,28,02,26,10.80
2014,11,28,02,27,10.80
2014,11,28,02,28,10.80
2014,11,28,02,29,10.80
2014,11,28,02,30,10.70
2014,11,28,02,31,10.70
2014,11,28,02,32,10.60
2014,11,28,02,33,10.60
2014,11,28,02,34,10.60
2014,11,28,02,35,10.60
2014,11,28,02,36,10.60
2014,11,28,02,37,10.60
2014,11,28,02,38,10.60
2014,11,28,02,39,10.60
2014,11,28,02,40,10.60
2014,11,28,02,41,10.60
2014,11,28,02,42,10.60
2014,11,28,02,43,10.60
2014,11,28,02,44,10.60
2014,11,28,02,45,10.60
2014,11,28,02,46,10.60
2014,11,28,02,47,10.60
2014,11,28,02,48,10.50
2014,11,28,02,49,10.40
2014,11,28,02,50,10.40
2014,11,28,02,51,10.40
2014,11,28,02,52,10.40
2014,11,28,02,53,10.40
2014,11,28,02,54,10.40
2014,11,28,02,55,10.40
2014,11,28,02,56,10.40
2014,11,28,02,57,10.40
2014,11,28,02,58,10.40
2014,11,28,02,59,10.40
2014,11,28,03,00,10.40
2014,11,28,03,01,10.40
2014,11,28,03,02,10.30
2014,11,28,03,03,10.30
2014,11,28,03,04,10.30
2014,11,28,03,05,10.30
2014,11,28,03,06,10.30
2014,11,28,03,07,10.20
2014,11,28,03,08,10.20
2014,11,28,03,09,10.20
2014,11,28,03,10,10.20
2014,11,28,03,11,10.20
2014,11,28,03,12,10.10
2014,11,28,03,13,10.10
2014,11,28,03,14,10.10
2014,11,28,03,15,10.10
2014,11,28,03,16,10.10
2014,11,28,03,17,10.10
2014,11,28,03,18,10.10
2014,11,28,03,19,10.10
2014,11,28,03,20,10.10
2014,11,28,03,21,10.10
2014,11,28,03,22,10.10
2014,11,28,03,23,10.10
2014,11,28,03,24,10.00
2014,11,28,03,25,9.90
2014,11,28,03,26,9.90
2014,11,28,03,27,9.90
2014,11,28,03,28,9.90
2014,11,28,03,29,9.90
2014,11,28,03,30,9.90
2014,11,28,03,31,9.90
2014,11,28,03,32,9.90
2014,11,28,03,33,9.90
2014,11,28,03,34,9.90
2014,11,28,03,35,9.90
2014,11,28,03,36,9.90
2014,11,28,03,37,9.90
2014,11,28,03,38,9.90
2014,11,28,03,39,9.90
2014,11,28,03,40,9.90
2014,11,28,03,41,9.80
2014,11,28,03,42,9.80
2014,11,28,03,43,9.80
2014,11,28,03,44,9.70
2014,11,28,03,45,9.70
2014,11,28,03,46,9.70
2014,11,28,03,47,9.70
2014,11,28,03,48,9.70
2014,11,28,03,49,9.70
2014,11,28,03,50,9.70
2014,11,28,03,51,9.70
2014,11,28,03,52,9.60
2014,11,28,03,53,9.60
2014,11,28,03,54,9.60
2014,11,28,03,55,9.60
2014,11,28,03,56,9.60
2014,11,28,03,57,9.50
2014,11,28,03,58,9.50
2014,11,28,03,59,9.50
2014,11,28,04,00,9.50
2014,11,28,04,01,9.50
2014,11,28,04,02,9.40
2014,11,28,04,03,9.40
2014,11,28,04,04,9.40
2014,11,28,04,05,9.40
2014,11,28,04,06,9.40
2014,11,28,04,07,9.30
2014,11,28,04,08,9.30
2014,11,28,04,09,9.30
2014,11,28,04,10,9.30
2014,11,28,04,11,9.20
2014,11,28,04,12,9.20
2014,11,28,04,13,9.20
2014,11,28,04,14,9.20
2014,11,28,04,15,9.20
2014,11,28,04,16,9.20
2014,11,28,04,17,9.10
2014,11,28,04,18,9.10
2014,11,28,04,19,9.10
2014,11,28,04,20,9.10
2014,11,28,04,21,9.10
2014,11,28,04,22,9.00
2014,11,28,04,23,9.00
2014,11,28,04,24,9.00
2014,11,28,04,25,8.90
2014,11,28,04,26,8.90
2014,11,28,04,27,8.90
2014,11,28,04,28,9.00
2014,11,28,04,29,9.00
2014,11,28,04,30,9.00
2014,11,28,04,31,9.00
2014,11,28,04,32,9.00
2014,11,28,04,33,9.10
2014,11,28,04,34,9.10
2014,11,28,04,35,9.10
2014,11,28,04,36,9.10
2014,11,28,04,37,9.10
2014,11,28,04,38,9.10
2014,11,28,04,39,9.10
2014,11,28,04,40,9.00
2014,11,28,04,41,9.00
2014,11,28,04,42,9.00
2014,11,28,04,43,8.90
2014,11,28,04,44,8.90
2014,11,28,04,45,8.90
2014,11,28,04,46,8.90
2014,11,28,04,47,8.80
2014,11,28,04,48,8.80
2014,11,28,04,49,8.80
2014,11,28,04,50,8.70
2014,11,28,04,51,8.60
2014,11,28,04,52,8.50
2014,11,28,04,53,8.40
2014,11,28,04,54,8.40
2014,11,28,04,55,8.30
2014,11,28,04,56,8.30
2014,11,28,04,57,8.20
2014,11,28,04,58,8.20
2014,11,28,04,59,8.20
2014,11,28,05,00,8.20
2014,11,28,05,01,8.20
2014,11,28,05,02,8.20
2014,11,28,05,03,8.20
2014,11,28,05,04,8.10
2014,11,28,05,05,8.10
2014,11,28,05,06,8.00
2014,11,28,05,07,8.00
2014,11,28,05,08,8.00
2014,11,28,05,09,7.90
2014,11,28,05,10,7.90
2014,11,28,05,11,7.80
2014,11,28,05,12,7.80
2014,11,28,05,13,7.80
2014,11,28,05,14,7.80
2014,11,28,05,15,7.80
2014,11,28,05,16,7.70
2014,11,28,05,17,7.70
2014,11,28,05,18,7.70
2014,11,28,05,19,7.60
2014,11,28,05,20,7.60
2014,11,28,05,21,7.50
2014,11,28,05,22,7.50
2014,11,28,05,23,7.50
2014,11,28,05,24,7.40
2014,11,28,05,25,7.40
2014,11,28,05,26,7.30
2014,11,28,05,27,7.30
2014,11,28,05,28,7.20
2014,11,28,05,29,7.10
2014,11,28,05,30,7.10
2014,11,28,05,31,7.00
2014,11,28,05,32,7.00
2014,11,28,05,33,6.90
2014,11,28,05,34,6.90
2014,11,28,05,35,6.90
2014,11,28,05,36,6.80
2014,11,28,05,37,6.80
2014,11,28,05,38,6.80
2014,11,28,05,39,6.80
2014,11,28,05,40,6.80
2014,11,28,05,41,6.80
2014,11,28,05,42,6.80
2014,11,28,05,43,6.80
2014,11,28,05,44,6.80
2014,11,28,05,45,6.80
2014,11,28,05,46,6.80
2014,11,28,05,47,6.80
2014,11,28,05,48,6.80
2014,11,28,05,49,6.80
2014,11,28,05,50,6.80
2014,11,28,05,51,6.70
2014,11,28,05,52,6.70
2014,11,28,05,53,6.70
2014,11,28,05,54,6.70
2014,11,28,05,55,6.70
2014,11,28,05,56,6.70
2014,11,28,05,57,6.60
2014,11,28,05,58,6.60
2014,11,28,05,59,6.60
2014,11,28,06,00,6.60
2014,11,28,06,01,6.60
2014,11,28,06,02,6.60
2014,11,28,06,03,6.60
2014,11,28,06,04,6.60
2014,11,28,06,05,6.60
2014,11,28,06,06,6.60
2014,11,28,06,07,6.60
2014,11,28,06,08,6.60
2014,11,28,06,09,6.60
2014,11,28,06,10,6.60
2014,11,28,06,11,6.60
2014,11,28,06,12,6.50
2014,11,28,06,13,6.50
2014,11,28,06,14,6.40
2014,11,28,06,15,6.40
2014,11,28,06,16,6.40
2014,11,28,06,17,6.40
2014,11,28,06,18,6.40
2014,11,28,06,19,6.40
2014,11,28,06,20,6.40
2014,11,28,06,21,6.40
2014,11,28,06,22,6.40
2014,11,28,06,23,6.40
2014,11,28,06,24,6.40
2014,11,28,06,25,6.40
2014,11,28,06,26,6.40
2014,11,28,06,27,6.40
2014,11,28,06,28,6.40
2014,11,28,06,29,6.40
2014,11,28,06,30,6.40
2014,11,28,06,31,6.40
2014,11,28,06,32,6.40
2014,11,28,06,33,6.40
2014,11,28,06,34,6.40
2014,11,28,06,35,6.40
2014,11,28,06,36,6.40
2014,11,28,06,37,6.40
2014,11,28,06,38,6.40
2014,11,28,06,39,6.50
2014,11,28,06,40,6.60
2014,11,28,06,41,6.60
2014,11,28,06,42,6.60
2014,11,28,06,43,6.60
2014,11,28,06,44,6.60
2014,11,28,06,45,6.60
2014,11,28,06,46,6.60
2014,11,28,06,47,6.50
2014,11,28,06,48,6.40
2014,11,28,06,49,6.40
2014,11,28,06,50,6.40
2014,11,28,06,51,6.40
2014,11,28,06,52,6.40
2014,11,28,06,53,6.40
2014,11,28,06,54,6.40
2014,11,28,06,55,6.40
2014,11,28,06,56,6.40
2014,11,28,06,57,6.40
2014,11,28,06,58,6.40
2014,11,28,06,59,6.30
2014,11,28,07,00,6.30
2014,11,28,07,01,6.20
2014,11,28,07,02,6.20
2014,11,28,07,03,6.20
2014,11,28,07,04,6.20
2014,11,28,07,05,6.10
2014,11,28,07,06,6.10
2014,11,28,07,07,6.10
2014,11,28,07,08,6.00
2014,11,28,07,09,6.00
2014,11,28,07,10,6.00
2014,11,28,07,11,6.00
2014,11,28,07,12,6.00
2014,11,28,07,13,6.00
2014,11,28,07,14,6.00
2014,11,28,07,15,5.90
2014,11,28,07,16,5.90
2014,11,28,07,17,5.90
2014,11,28,07,18,5.90
2014,11,28,07,19,5.90
2014,11,28,07,20,5.90
2014,11,28,07,21,5.90
2014,11,28,07,22,6.00
2014,11,28,07,23,6.00
2014,11,28,07,24,6.00
2014,11,28,07,25,6.00
2014,11,28,07,26,6.00
2014,11,28,07,27,6.00
2014,11,28,07,28,6.00
2014,11,28,07,29,6.00
2014,11,28,07,30,6.10
2014,11,28,07,31,6.10
2014,11,28,07,32,6.10
2014,11,28,07,33,6.10
2014,11,28,07,34,6.10
2014,11,28,07,35,6.10
2014,11,28,07,36,6.10
2014,11,28,07,37,6.10
2014,11,28,07,38,6.10
2014,11,28,07,39,6.10
2014,11,28,07,40,6.10
2014,11,28,07,41,6.10
2014,11,28,07,42,6.10
2014,11,28,07,43,6.10
2014,11,28,07,44,6.10
2014,11,28,07,45,6.10
2014,11,28,07,46,6.10
2014,11,28,07,47,6.10
2014,11,28,07,48,6.10
2014,11,28,07,49,6.10
2014,11,28,07,50,6.10
2014,11,28,07,51,6.10
2014,11,28,07,52,6.10
2014,11,28,07,53,6.20
2014,11,28,07,54,6.20
2014,11,28,07,55,6.20
2014,11,28,07,56,6.20
2014,11,28,07,57,6.20
2014,11,28,07,58,6.20
2014,11,28,07,59,6.20
2014,11,28,08,00,6.20
2014,11,28,08,01,6.20
2014,11,28,08,02,6.20
2014,11,28,08,03,6.10
2014,11,28,08,04,6.10
2014,11,28,08,05,6.10
2014,11,28,08,06,6.10
2014,11,28,08,07,6.10
2014,11,28,08,08,6.10
2014,11,28,08,09,6.10
2014,11,28,08,10,6.10
2014,11,28,08,11,6.10
2014,11,28,08,12,6.10
2014,11,28,08,13,6.10
2014,11,28,08,14,6.10
2014,11,28,08,15,6.10
2014,11,28,08,16,6.10
2014,11,28,08,17,6.10
2014,11,28,08,18,6.10
2014,11,28,08,19,6.10
2014,11,28,08,20,6.10
2014,11,28,08,21,6.00
2014,11,28,08,22,6.00
2014,11,28,08,23,6.00
2014,11,28,08,24,6.00
2014,11,28,08,25,6.00
2014,11,28,08,26,6.00
2014,11,28,08,27,6.10
2014,11,28,08,28,6.10
2014,11,28,08,29,6.10
2014,11,28,08,30,6.10
2014,11,28,08,31,6.10
2014,11,28,08,32,6.10
2014,11,28,08,33,6.10
2014,11,28,08,34,6.00
2014,11,28,08,35,6.00
2014,11,28,08,36,6.00
2014,11,28,08,37,6.00
2014,11,28,08,38,5.90
2014,11,28,08,39,5.90
2014,11,28,08,40,5.80
2014,11,28,08,41,5.80
2014,11,28,08,42,5.70
2014,11,28,08,43,5.70
2014,11,28,08,44,5.70
2014,11,28,08,45,5.70
2014,11,28,08,46,5.70
2014,11,28,08,47,5.60
2014,11,28,08,48,5.60
2014,11,28,08,49,5.50
2014,11,28,08,50,5.50
2014,11,28,08,51,5.50
2014,11,28,08,52,5.40
2014,11,28,08,53,5.40
2014,11,28,08,54,5.30
2014,11,28,08,55,5.30
2014,11,28,08,56,5.30
2014,11,28,08,57,5.30
2014,11,28,08,58,5.30
2014,11,28,08,59,5.30
2014,11,28,09,00,5.30
2014,11,28,09,01,5.30
2014,11,28,09,02,5.30
2014,11,28,09,03,5.30
2014,11,28,09,04,5.20
2014,11,28,09,05,5.20
2014,11,28,09,06,5.20
2014,11,28,09,07,5.20
2014,11,28,09,08,5.20
2014,11,28,09,09,5.20
2014,11,28,09,10,5.10
2014,11,28,09,11,5.10
2014,11,28,09,12,5.10
2014,11,28,09,13,5.10
2014,11,28,09,14,5.10
2014,11,28,09,15,5.10
2014,11,28,09,16,5.10
2014,11,28,09,17,5.10
2014,11,28,09,18,5.10
2014,11,28,09,19,5.10
2014,11,28,09,20,5.10
2014,11,28,09,21,5.10
2014,11,28,09,22,5.10
2014,11,28,09,23,5.10
2014,11,28,09,24,5.10
2014,11,28,09,25,5.10
2014,11,28,09,26,5.10
2014,11,28,09,27,5.10
2014,11,28,09,28,5.10
2014,11,28,09,29,5.10
2014,11,28,09,30,5.10
2014,11,28,09,31,5.10
2014,11,28,09,32,5.10
2014,11,28,09,33,5.10
2014,11,28,09,34,5.00
2014,11,28,09,35,4.90
2014,11,28,09,36,4.90
2014,11,28,09,37,4.90
2014,11,28,09,38,4.90
2014,11,28,09,39,4.90
2014,11,28,09,40,4.90
2014,11,28,09,41,4.90
2014,11,28,09,42,4.90
2014,11,28,09,43,4.90
2014,11,28,09,44,4.90
2014,11,28,09,45,4.90
2014,11,28,09,46,4.90
2014,11,28,09,47,4.90
2014,11,28,09,48,4.90
2014,11,28,09,49,4.90
2014,11,28,09,50,4.90
2014,11,28,09,51,4.90
2014,11,28,09,52,4.90
2014,11,28,09,53,4.90
2014,11,28,09,54,4.90
2014,11,28,09,55,4.90
2014,11,28,09,56,4.90
2014,11,28,09,57,4.90
2014,11,28,09,58,4.90
2014,11,28,09,59,4.90
2014,11,28,10,00,4.90
2014,11,28,10,01,4.90
2014,11,28,10,02,4.90
2014,11,28,10,03,4.90
2014,11,28,10,04,4.90
2014,11,28,10,05,4.90
2014,11,28,10,06,4.90
2014,11,28,10,07,4.90
2014,11,28,10,08,4.90
2014,11,28,10,09,4.90
2014,11,28,10,10,4.90
2014,11,28,10,11,4.90
2014,11,28,10,12,4.90
2014,11,28,10,13,4.90
2014,11,28,10,14,4.90
2014,11,28,10,15,4.90
2014,11,28,10,16,4.90
2014,11,28,10,17,5.10
2014,11,28,10,18,5.10
2014,11,28,10,19,5.10
2014,11,28,10,20,5.10
2014,11,28,10,21,5.10
2014,11,28,10,22,5.10
2014,11,28,10,23,5.10
2014,11,28,10,24,5.10
2014,11,28,10,25,5.10
2014,11,28,10,26,5.10
2014,11,28,10,27,5.20
2014,11,28,10,28,5.20
2014,11,28,10,29,5.20
2014,11,28,10,30,5.20
2014,11,28,10,31,5.20
2014,11,28,10,32,5.20
2014,11,28,10,33,5.20
2014,11,28,10,34,5.20
2014,11,28,10,35,5.20
2014,11,28,10,36,5.20
2014,11,28,10,37,5.20
2014,11,28,10,38,5.20
2014,11,28,10,39,5.20
2014,11,28,10,40,5.20
2014,11,28,10,41,5.30
2014,11,28,10,42,5.30
2014,11,28,10,43,5.30
2014,11,28,10,44,5.30
2014,11,28,10,45,5.30
2014,11,28,10,46,5.30
2014,11,28,10,47,5.30
2014,11,28,10,48,5.30
2014,11,28,10,49,5.30
2014,11,28,10,50,5.30
2014,11,28,10,51,5.30
2014,11,28,10,52,5.30
2014,11,28,10,53,5.30
2014,11,28,10,54,5.30
2014,11,28,10,55,5.30
2014,11,28,10,56,5.30
2014,11,28,10,57,5.30
2014,11,28,10,58,5.30
2014,11,28,10,59,5.30
2014,11,28,11,00,5.30
2014,11,28,11,01,5.30
2014,11,28,11,02,5.30
2014,11,28,11,03,5.20
2014,11,28,11,04,5.20
2014,11,28,11,05,5.20
2014,11,28,11,06,5.20
2014,11,28,11,07,5.20
2014,11,28,11,08,5.20
2014,11,28,11,09,5.10
2014,11,28,11,10,5.10
2014,11,28,11,11,5.10
2014,11,28,11,12,5.10
2014,11,28,11,13,5.10
2014,11,28,11,14,5.10
2014,11,28,11,15,5.10
2014,11,28,11,16,5.10
2014,11,28,11,17,5.10
2014,11,28,11,18,5.10
2014,11,28,11,19,5.10
2014,11,28,11,20,5.10
2014,11,28,11,21,5.10
2014,11,28,11,22,5.10
2014,11,28,11,23,5.20
2014,11,28,11,24,5.20
2014,11,28,11,25,5.20
2014,11,28,11,26,5.20
2014,11,28,11,27,5.20
2014,11,28,11,28,5.20
2014,11,28,11,29,5.20
2014,11,28,11,30,5.20
2014,11,28,11,31,5.30
2014,11,28,11,32,5.30
2014,11,28,11,33,5.30
2014,11,28,11,34,5.30
2014,11,28,11,35,5.30
2014,11,28,11,36,5.30
2014,11,28,11,37,5.30
2014,11,28,11,38,5.30
2014,11,28,11,39,5.30
2014,11,28,11,40,5.30
2014,11,28,11,41,5.30
2014,11,28,11,42,5.30
2014,11,28,11,43,5.30
2014,11,28,11,44,5.30
2014,11,28,11,45,5.30
2014,11,28,11,46,5.30
2014,11,28,11,47,5.30
2014,11,28,11,48,5.30
2014,11,28,11,49,5.30
2014,11,28,11,50,5.30
2014,11,28,11,51,5.30
2014,11,28,11,52,5.30
2014,11,28,11,53,5.30
2014,11,28,11,54,5.30
2014,11,28,11,55,5.30
2014,11,28,11,56,5.30
2014,11,28,11,57,5.30
2014,11,28,11,58,5.30
2014,11,28,11,59,5.30
2014,11,28,12,00,5.30
2014,11,28,12,01,5.30
2014,11,28,12,02,5.30
2014,11,28,12,03,5.30
2014,11,28,12,04,5.30
2014,11,28,12,05,5.30
2014,11,28,12,06,5.30
2014,11,28,12,07,5.30
2014,11,28,12,08,5.30
2014,11,28,12,09,5.30
2014,11,28,12,10,5.30
2014,11,28,12,11,5.30
2014,11,28,12,12,5.30
2014,11,28,12,13,5.30
2014,11,28,12,14,5.30
2014,11,28,12,15,5.30
2014,11,28,12,16,5.30
2014,11,28,12,17,5.30
2014,11,28,12,18,5.30
2014,11,28,12,19,5.30
2014,11,28,12,20,5.30
2014,11,28,12,21,5.30
2014,11,28,12,22,5.40
2014,11,28,12,23,5.30
2014,11,28,12,24,5.30
2014,11,28,12,25,5.30
2014,11,28,12,26,5.30
2014,11,28,12,27,5.30
2014,11,28,12,28,5.30
2014,11,28,12,29,5.30
2014,11,28,12,30,5.30
2014,11,28,12,31,5.30
2014,11,28,12,32,5.30
2014,11,28,12,33,5.30
2014,11,28,12,34,5.30
2014,11,28,12,35,5.30
2014,11,28,12,36,5.30
2014,11,28,12,37,5.30
2014,11,28,12,38,5.20
2014,11,28,12,39,5.20
2014,11,28,12,40,5.20
2014,11,28,12,41,5.20
2014,11,28,12,42,5.20
2014,11,28,12,43,5.20
2014,11,28,12,44,5.20
2014,11,28,12,45,5.20
2014,11,28,12,46,5.20
2014,11,28,12,47,5.20
2014,11,28,12,48,5.20
2014,11,28,12,49,5.20
2014,11,28,12,50,5.20
2014,11,28,12,51,5.20
2014,11,28,12,52,5.30
2014,11,28,12,53,5.30
2014,11,28,12,54,5.30
2014,11,28,12,55,5.30
2014,11,28,12,56,5.30
2014,11,28,12,57,5.20
2014,11,28,12,58,5.20
2014,11,28,12,59,5.20
2014,11,28,13,00,5.20
2014,11,28,13,01,5.30
2014,11,28,13,02,5.30
2014,11,28,13,03,5.30
2014,11,28,13,04,5.30
2014,11,28,13,05,5.30
2014,11,28,13,06,5.30
2014,11,28,13,07,5.30
2014,11,28,13,08,5.30
2014,11,28,13,09,5.30
2014,11,28,13,10,5.30
2014,11,28,13,11,5.30
2014,11,28,13,12,5.30
2014,11,28,13,13,5.30
2014,11,28,13,14,5.30
2014,11,28,13,15,5.30
2014,11,28,13,16,5.30
2014,11,28,13,17,5.30
2014,11,28,13,18,5.30
2014,11,28,13,19,5.30
2014,11,28,13,20,5.30
2014,11,28,13,21,5.30
2014,11,28,13,22,5.30
2014,11,28,13,23,5.30
2014,11,28,13,24,5.30
2014,11,28,13,25,5.30
2014,11,28,13,26,5.30
2014,11,28,13,27,5.30
2014,11,28,13,28,5.30
2014,11,28,13,29,5.30
2014,11,28,13,30,5.30
2014,11,28,13,31,5.30
2014,11,28,13,32,5.40
2014,11,28,13,33,5.40
2014,11,28,13,34,5.50
2014,11,28,13,35,5.50
2014,11,28,13,36,5.50
2014,11,28,13,37,5.50
2014,11,28,13,38,5.50
2014,11,28,13,39,5.50
2014,11,28,13,40,5.50
2014,11,28,13,41,5.50
2014,11,28,13,42,5.50
2014,11,28,13,43,5.50
2014,11,28,13,44,5.50
2014,11,28,13,45,5.50
2014,11,28,13,46,5.60
2014,11,28,13,47,5.60
2014,11,28,13,48,5.60
2014,11,28,13,49,5.60
2014,11,28,13,50,5.60
2014,11,28,13,51,5.70
2014,11,28,13,52,5.70
2014,11,28,13,53,5.70
2014,11,28,13,54,5.70
2014,11,28,13,55,5.70
2014,11,28,13,56,5.70
2014,11,28,13,57,5.80
2014,11,28,13,58,5.80
2014,11,28,13,59,5.80
2014,11,28,14,00,5.90
2014,11,28,14,01,5.90
2014,11,28,14,02,5.90
2014,11,28,14,03,6.00
2014,11,28,14,04,6.00
2014,11,28,14,05,5.90
2014,11,28,14,06,5.90
2014,11,28,14,07,5.90
2014,11,28,14,08,5.90
2014,11,28,14,09,5.90
2014,11,28,14,10,5.90
2014,11,28,14,11,5.90
2014,11,28,14,12,5.90
2014,11,28,14,13,5.80
2014,11,28,14,14,5.70
2014,11,28,14,15,5.60
2014,11,28,14,16,5.50
2014,11,28,14,17,5.40
2014,11,28,14,18,5.30
2014,11,28,14,19,5.30
2014,11,28,14,20,5.30
2014,11,28,14,21,5.30
2014,11,28,14,22,5.30
2014,11,28,14,23,5.30
2014,11,28,14,24,5.30
2014,11,28,14,25,5.30
2014,11,28,14,26,5.30
2014,11,28,14,27,5.20
2014,11,28,14,28,5.20
2014,11,28,14,29,5.20
2014,11,28,14,30,5.10
2014,11,28,14,31,5.10
2014,11,28,14,32,5.10
2014,11,28,14,33,5.00
2014,11,28,14,34,4.90
2014,11,28,14,35,4.90
2014,11,28,14,36,4.90
2014,11,28,14,37,4.90
2014,11,28,14,38,4.90
2014,11,28,14,39,4.90
2014,11,28,14,40,4.80
2014,11,28,14,41,4.80
2014,11,28,14,42,4.80
2014,11,28,14,43,4.80
2014,11,28,14,44,4.80
2014,11,28,14,45,4.80
2014,11,28,14,46,4.80
2014,11,28,14,47,4.80
2014,11,28,14,48,4.80
2014,11,28,14,49,4.80
2014,11,28,14,50,4.80
2014,11,28,14,51,4.80
2014,11,28,14,52,4.80
2014,11,28,14,53,4.80
2014,11,28,14,54,4.70
2014,11,28,14,55,4.70
2014,11,28,14,56,4.70
2014,11,28,14,57,4.70
2014,11,28,14,58,4.70
2014,11,28,14,59,4.70
2014,11,28,15,00,4.70
2014,11,28,15,01,4.70
2014,11,28,15,02,4.70
2014,11,28,15,03,4.70
2014,11,28,15,04,4.70
2014,11,28,15,05,4.60
2014,11,28,15,06,4.60
2014,11,28,15,07,4.60
2014,11,28,15,08,4.60
2014,11,28,15,09,4.50
2014,11,28,15,10,4.50
2014,11,28,15,11,4.50
2014,11,28,15,12,4.50
2014,11,28,15,13,4.50
2014,11,28,15,14,4.50
2014,11,28,15,15,4.50
2014,11,28,15,16,4.50
2014,11,28,15,17,4.50
2014,11,28,15,18,4.50
2014,11,28,15,19,4.50
2014,11,28,15,20,4.50
2014,11,28,15,21,4.50
2014,11,28,15,22,4.40
2014,11,28,15,23,4.40
2014,11,28,15,24,4.40
2014,11,28,15,25,4.30
2014,11,28,15,26,4.30
2014,11,28,15,27,4.30
2014,11,28,15,28,4.20
2014,11,28,15,29,4.20
2014,11,28,15,30,4.20
2014,11,28,15,31,4.20
2014,11,28,15,32,4.10
2014,11,28,15,33,4.10
2014,11,28,15,34,4.10
2014,11,28,15,35,4.00
2014,11,28,15,36,4.00
2014,11,28,15,37,4.00
2014,11,28,15,38,4.00
2014,11,28,15,39,4.00
2014,11,28,15,40,3.90
2014,11,28,15,41,3.90
2014,11,28,15,42,3.90
2014,11,28,15,43,3.80
2014,11,28,15,44,3.80
2014,11,28,15,45,3.80
2014,11,28,15,46,3.80
2014,11,28,15,47,3.70
2014,11,28,15,48,3.70
2014,11,28,15,49,3.70
2014,11,28,15,50,3.70
2014,11,28,15,51,3.70
2014,11,28,15,52,3.70
2014,11,28,15,53,3.60
2014,11,28,15,54,3.60
2014,11,28,15,55,3.60
2014,11,28,15,56,3.60
2014,11,28,15,57,3.60
2014,11,28,15,58,3.50
2014,11,28,15,59,3.50
2014,11,28,16,00,3.50
2014,11,28,16,01,3.50
2014,11,28,16,02,3.40
2014,11,28,16,03,3.40
2014,11,28,16,04,3.40
2014,11,28,16,05,3.30
2014,11,28,16,06,3.30
2014,11,28,16,07,3.30
2014,11,28,16,08,3.30
2014,11,28,16,09,3.30
2014,11,28,16,10,3.20
2014,11,28,16,11,3.20
2014,11,28,16,12,3.20
2014,11,28,16,13,3.10
2014,11,28,16,14,3.10
2014,11,28,16,15,3.10
2014,11,28,16,16,3.00
2014,11,28,16,17,2.90
2014,11,28,16,18,2.90
2014,11,28,16,19,2.90
2014,11,28,16,20,2.90
2014,11,28,16,21,2.80
2014,11,28,16,22,2.80
2014,11,28,16,23,2.70
2014,11,28,16,24,2.70
2014,11,28,16,25,2.70
2014,11,28,16,26,2.70
2014,11,28,16,27,2.60
2014,11,28,16,28,2.60
2014,11,28,16,29,2.60
2014,11,28,16,30,2.50
2014,11,28,16,31,2.50
2014,11,28,16,32,2.50
2014,11,28,16,33,2.40
2014,11,28,16,34,2.40
2014,11,28,16,35,2.40
2014,11,28,16,36,2.40
2014,11,28,16,37,2.40
2014,11,28,16,38,2.30
2014,11,28,16,39,2.30
2014,11,28,16,40,2.30
2014,11,28,16,41,2.30
2014,11,28,16,42,2.30
2014,11,28,16,43,2.30
2014,11,28,16,44,2.30
2014,11,28,16,45,2.30
2014,11,28,16,46,2.30
2014,11,28,16,47,2.20
2014,11,28,16,48,2.20
2014,11,28,16,49,2.20
2014,11,28,16,50,2.20
2014,11,28,16,51,2.30
2014,11,28,16,52,2.30
2014,11,28,16,53,2.40
2014,11,28,16,54,2.40
2014,11,28,16,55,2.40
2014,11,28,16,56,2.40
2014,11,28,16,57,2.40
2014,11,28,16,58,2.50
2014,11,28,16,59,2.50
2014,11,28,17,00,2.50
2014,11,28,17,01,2.50
2014,11,28,17,02,2.60
2014,11,28,17,03,2.60
2014,11,28,17,04,2.60
2014,11,28,17,05,2.60
2014,11,28,17,06,2.50
2014,11,28,17,07,2.50
2014,11,28,17,08,2.40
2014,11,28,17,09,2.40
2014,11,28,17,10,2.40
2014,11,28,17,11,2.40
2014,11,28,17,12,2.40
2014,11,28,17,13,2.40
2014,11,28,17,14,2.30
2014,11,28,17,15,2.30
2014,11,28,17,16,2.30
2014,11,28,17,17,2.20
2014,11,28,17,18,2.20
2014,11,28,17,19,2.20
2014,11,28,17,20,2.20
2014,11,28,17,21,2.20
2014,11,28,17,22,2.20
2014,11,28,17,23,2.10
2014,11,28,17,24,2.10
2014,11,28,17,25,2.10
2014,11,28,17,26,2.00
2014,11,28,17,27,2.00
2014,11,28,17,28,2.00
2014,11,28,17,29,2.00
2014,11,28,17,30,2.00
2014,11,28,17,31,1.90
2014,11,28,17,32,1.90
2014,11,28,17,33,1.90
2014,11,28,17,34,1.90
2014,11,28,17,35,1.90
2014,11,28,17,36,1.90
2014,11,28,17,37,1.80
2014,11,28,17,38,1.80
2014,11,28,17,39,1.80
2014,11,28,17,40,1.80
2014,11,28,17,41,1.80
2014,11,28,17,42,1.80
2014,11,28,17,43,1.80
2014,11,28,17,44,1.80
2014,11,28,17,45,1.70
2014,11,28,17,46,1.70
2014,11,28,17,47,1.70
2014,11,28,17,48,1.70
2014,11,28,17,49,1.60
2014,11,28,17,50,1.60
2014,11,28,17,51,1.60
2014,11,28,17,52,1.60
2014,11,28,17,53,1.50
2014,11,28,17,54,1.50
2014,11,28,17,55,1.50
2014,11,28,17,56,1.50
2014,11,28,17,57,1.50
2014,11,28,17,58,1.50
2014,11,28,17,59,1.40